Data supplied by UK-AIR on 5/4/2008
All Data GMT hour ending 
Status: R =Ratified P=Provisional,P*=As supplied
,,Aston Hill,,,,,,,,,,,,,,,,,,,,,,,
Date,time,"Ozone",status,unit
 
01-01-2000,01:00,,,
01-01-2000,02:00,66,R,ugm-3
01-01-2000,03:00,66,R,ugm-3
01-01-2000,04:00,66,R,ugm-3
01-01-2000,05:00,68,R,ugm-3
01-01-2000,06:00,68,R,ugm-3
01-01-2000,07:00,72,R,ugm-3
01-01-2000,08:00,72,R,ugm-3
01-01-2000,09:00,76,R,ugm-3
01-01-2000,10:00,76,R,ugm-3
01-01-2000,11:00,64,R,ugm-3
01-01-2000,12:00,60,R,ugm-3
01-01-2000,13:00,66,R,ugm-3
01-01-2000,14:00,60,R,ugm-3
01-01-2000,15:00,60,R,ugm-3
01-01-2000,16:00,62,R,ugm-3
01-01-2000,17:00,58,R,ugm-3
01-01-2000,18:00,64,R,ugm-3
01-01-2000,19:00,60,R,ugm-3
01-01-2000,20:00,54,R,ugm-3
01-01-2000,21:00,50,R,ugm-3
01-01-2000,22:00,64,R,ugm-3
01-01-2000,23:00,72,R,ugm-3
01-01-2000,24:00,70,R,ugm-3
02-01-2000,01:00,72,R,ugm-3
02-01-2000,02:00,74,R,ugm-3
02-01-2000,03:00,76,R,ugm-3
02-01-2000,04:00,78,R,ugm-3
02-01-2000,05:00,78,R,ugm-3
02-01-2000,06:00,78,R,ugm-3
02-01-2000,07:00,76,R,ugm-3
02-01-2000,08:00,70,R,ugm-3
02-01-2000,09:00,68,R,ugm-3
02-01-2000,10:00,66,R,ugm-3
02-01-2000,11:00,64,R,ugm-3
02-01-2000,12:00,66,R,ugm-3
02-01-2000,13:00,62,R,ugm-3
02-01-2000,14:00,66,R,ugm-3
02-01-2000,15:00,70,R,ugm-3
02-01-2000,16:00,60,R,ugm-3
02-01-2000,17:00,56,R,ugm-3
02-01-2000,18:00,54,R,ugm-3
02-01-2000,19:00,54,R,ugm-3
02-01-2000,20:00,66,R,ugm-3
02-01-2000,21:00,70,R,ugm-3
02-01-2000,22:00,70,R,ugm-3
02-01-2000,23:00,70,R,ugm-3
02-01-2000,24:00,74,R,ugm-3
03-01-2000,01:00,74,R,ugm-3
03-01-2000,02:00,74,R,ugm-3
03-01-2000,03:00,76,R,ugm-3
03-01-2000,04:00,76,R,ugm-3
03-01-2000,05:00,76,R,ugm-3
03-01-2000,06:00,74,R,ugm-3
03-01-2000,07:00,74,R,ugm-3
03-01-2000,08:00,76,R,ugm-3
03-01-2000,09:00,72,R,ugm-3
03-01-2000,10:00,72,R,ugm-3
03-01-2000,11:00,72,R,ugm-3
03-01-2000,12:00,70,R,ugm-3
03-01-2000,13:00,70,R,ugm-3
03-01-2000,14:00,66,R,ugm-3
03-01-2000,15:00,62,R,ugm-3
03-01-2000,16:00,58,R,ugm-3
03-01-2000,17:00,64,R,ugm-3
03-01-2000,18:00,68,R,ugm-3
03-01-2000,19:00,68,R,ugm-3
03-01-2000,20:00,68,R,ugm-3
03-01-2000,21:00,70,R,ugm-3
03-01-2000,22:00,70,R,ugm-3
03-01-2000,23:00,68,R,ugm-3
03-01-2000,24:00,68,R,ugm-3
04-01-2000,01:00,66,R,ugm-3
04-01-2000,02:00,72,R,ugm-3
04-01-2000,03:00,76,R,ugm-3
04-01-2000,04:00,78,R,ugm-3
04-01-2000,05:00,76,R,ugm-3
04-01-2000,06:00,76,R,ugm-3
04-01-2000,07:00,72,R,ugm-3
04-01-2000,08:00,68,R,ugm-3
04-01-2000,09:00,58,R,ugm-3
04-01-2000,10:00,58,R,ugm-3
04-01-2000,11:00,54,R,ugm-3
04-01-2000,12:00,60,R,ugm-3
04-01-2000,13:00,76,R,ugm-3
04-01-2000,14:00,76,R,ugm-3
04-01-2000,15:00,76,R,ugm-3
04-01-2000,16:00,76,R,ugm-3
04-01-2000,17:00,72,R,ugm-3
04-01-2000,18:00,70,R,ugm-3
04-01-2000,19:00,68,R,ugm-3
04-01-2000,20:00,66,R,ugm-3
04-01-2000,21:00,68,R,ugm-3
04-01-2000,22:00,62,R,ugm-3
04-01-2000,23:00,62,R,ugm-3
04-01-2000,24:00,60,R,ugm-3
05-01-2000,01:00,60,R,ugm-3
05-01-2000,02:00,64,R,ugm-3
05-01-2000,03:00,68,R,ugm-3
05-01-2000,04:00,68,R,ugm-3
05-01-2000,05:00,72,R,ugm-3
05-01-2000,06:00,72,R,ugm-3
05-01-2000,07:00,70,R,ugm-3
05-01-2000,08:00,70,R,ugm-3
05-01-2000,09:00,70,R,ugm-3
05-01-2000,10:00,70,R,ugm-3
05-01-2000,11:00,70,R,ugm-3
05-01-2000,12:00,70,R,ugm-3
05-01-2000,13:00,66,R,ugm-3
05-01-2000,14:00,74,R,ugm-3
05-01-2000,15:00,72,R,ugm-3
05-01-2000,16:00,72,R,ugm-3
05-01-2000,17:00,74,R,ugm-3
05-01-2000,18:00,70,R,ugm-3
05-01-2000,19:00,72,R,ugm-3
05-01-2000,20:00,64,R,ugm-3
05-01-2000,21:00,60,R,ugm-3
05-01-2000,22:00,64,R,ugm-3
05-01-2000,23:00,78,R,ugm-3
05-01-2000,24:00,78,R,ugm-3
06-01-2000,01:00,76,R,ugm-3
06-01-2000,02:00,76,R,ugm-3
06-01-2000,03:00,74,R,ugm-3
06-01-2000,04:00,74,R,ugm-3
06-01-2000,05:00,76,R,ugm-3
06-01-2000,06:00,76,R,ugm-3
06-01-2000,07:00,74,R,ugm-3
06-01-2000,08:00,74,R,ugm-3
06-01-2000,09:00,72,R,ugm-3
06-01-2000,10:00,74,R,ugm-3
06-01-2000,11:00,76,R,ugm-3
06-01-2000,12:00,74,R,ugm-3
06-01-2000,13:00,76,R,ugm-3
06-01-2000,14:00,74,R,ugm-3
06-01-2000,15:00,72,R,ugm-3
06-01-2000,16:00,72,R,ugm-3
06-01-2000,17:00,70,R,ugm-3
06-01-2000,18:00,66,R,ugm-3
06-01-2000,19:00,70,R,ugm-3
06-01-2000,20:00,66,R,ugm-3
06-01-2000,21:00,62,R,ugm-3
06-01-2000,22:00,60,R,ugm-3
06-01-2000,23:00,64,R,ugm-3
06-01-2000,24:00,70,R,ugm-3
07-01-2000,01:00,70,R,ugm-3
07-01-2000,02:00,68,R,ugm-3
07-01-2000,03:00,72,R,ugm-3
07-01-2000,04:00,72,R,ugm-3
07-01-2000,05:00,74,R,ugm-3
07-01-2000,06:00,74,R,ugm-3
07-01-2000,07:00,74,R,ugm-3
07-01-2000,08:00,76,R,ugm-3
07-01-2000,09:00,74,R,ugm-3
07-01-2000,10:00,76,R,ugm-3
07-01-2000,11:00,74,R,ugm-3
07-01-2000,12:00,74,R,ugm-3
07-01-2000,13:00,74,R,ugm-3
07-01-2000,14:00,72,R,ugm-3
07-01-2000,15:00,72,R,ugm-3
07-01-2000,16:00,70,R,ugm-3
07-01-2000,17:00,72,R,ugm-3
07-01-2000,18:00,74,R,ugm-3
07-01-2000,19:00,74,R,ugm-3
07-01-2000,20:00,74,R,ugm-3
07-01-2000,21:00,76,R,ugm-3
07-01-2000,22:00,76,R,ugm-3
07-01-2000,23:00,76,R,ugm-3
07-01-2000,24:00,78,R,ugm-3
08-01-2000,01:00,76,R,ugm-3
08-01-2000,02:00,74,R,ugm-3
08-01-2000,03:00,74,R,ugm-3
08-01-2000,04:00,74,R,ugm-3
08-01-2000,05:00,72,R,ugm-3
08-01-2000,06:00,70,R,ugm-3
08-01-2000,07:00,68,R,ugm-3
08-01-2000,08:00,68,R,ugm-3
08-01-2000,09:00,68,R,ugm-3
08-01-2000,10:00,66,R,ugm-3
08-01-2000,11:00,68,R,ugm-3
08-01-2000,12:00,74,R,ugm-3
08-01-2000,13:00,74,R,ugm-3
08-01-2000,14:00,74,R,ugm-3
08-01-2000,15:00,76,R,ugm-3
08-01-2000,16:00,76,R,ugm-3
08-01-2000,17:00,74,R,ugm-3
08-01-2000,18:00,76,R,ugm-3
08-01-2000,19:00,72,R,ugm-3
08-01-2000,20:00,70,R,ugm-3
08-01-2000,21:00,70,R,ugm-3
08-01-2000,22:00,70,R,ugm-3
08-01-2000,23:00,70,R,ugm-3
08-01-2000,24:00,70,R,ugm-3
09-01-2000,01:00,70,R,ugm-3
09-01-2000,02:00,70,R,ugm-3
09-01-2000,03:00,70,R,ugm-3
09-01-2000,04:00,72,R,ugm-3
09-01-2000,05:00,72,R,ugm-3
09-01-2000,06:00,72,R,ugm-3
09-01-2000,07:00,70,R,ugm-3
09-01-2000,08:00,72,R,ugm-3
09-01-2000,09:00,72,R,ugm-3
09-01-2000,10:00,70,R,ugm-3
09-01-2000,11:00,66,R,ugm-3
09-01-2000,12:00,62,R,ugm-3
09-01-2000,13:00,60,R,ugm-3
09-01-2000,14:00,64,R,ugm-3
09-01-2000,15:00,62,R,ugm-3
09-01-2000,16:00,62,R,ugm-3
09-01-2000,17:00,64,R,ugm-3
09-01-2000,18:00,68,R,ugm-3
09-01-2000,19:00,72,R,ugm-3
09-01-2000,20:00,70,R,ugm-3
09-01-2000,21:00,68,R,ugm-3
09-01-2000,22:00,62,R,ugm-3
09-01-2000,23:00,64,R,ugm-3
09-01-2000,24:00,68,R,ugm-3
10-01-2000,01:00,68,R,ugm-3
10-01-2000,02:00,66,R,ugm-3
10-01-2000,03:00,64,R,ugm-3
10-01-2000,04:00,62,R,ugm-3
10-01-2000,05:00,64,R,ugm-3
10-01-2000,06:00,62,R,ugm-3
10-01-2000,07:00,62,R,ugm-3
10-01-2000,08:00,62,R,ugm-3
10-01-2000,09:00,60,R,ugm-3
10-01-2000,10:00,60,R,ugm-3
10-01-2000,11:00,58,R,ugm-3
10-01-2000,12:00,62,R,ugm-3
10-01-2000,13:00,66,R,ugm-3
10-01-2000,14:00,,,
10-01-2000,15:00,,,
10-01-2000,16:00,,,
10-01-2000,17:00,,,
10-01-2000,18:00,,,
10-01-2000,19:00,72,R,ugm-3
10-01-2000,20:00,72,R,ugm-3
10-01-2000,21:00,70,R,ugm-3
10-01-2000,22:00,70,R,ugm-3
10-01-2000,23:00,72,R,ugm-3
10-01-2000,24:00,70,R,ugm-3
11-01-2000,01:00,70,R,ugm-3
11-01-2000,02:00,70,R,ugm-3
11-01-2000,03:00,70,R,ugm-3
11-01-2000,04:00,70,R,ugm-3
11-01-2000,05:00,70,R,ugm-3
11-01-2000,06:00,70,R,ugm-3
11-01-2000,07:00,72,R,ugm-3
11-01-2000,08:00,70,R,ugm-3
11-01-2000,09:00,70,R,ugm-3
11-01-2000,10:00,72,R,ugm-3
11-01-2000,11:00,72,R,ugm-3
11-01-2000,12:00,72,R,ugm-3
11-01-2000,13:00,72,R,ugm-3
11-01-2000,14:00,70,R,ugm-3
11-01-2000,15:00,72,R,ugm-3
11-01-2000,16:00,70,R,ugm-3
11-01-2000,17:00,70,R,ugm-3
11-01-2000,18:00,70,R,ugm-3
11-01-2000,19:00,72,R,ugm-3
11-01-2000,20:00,72,R,ugm-3
11-01-2000,21:00,72,R,ugm-3
11-01-2000,22:00,72,R,ugm-3
11-01-2000,23:00,72,R,ugm-3
11-01-2000,24:00,74,R,ugm-3
12-01-2000,01:00,74,R,ugm-3
12-01-2000,02:00,76,R,ugm-3
12-01-2000,03:00,74,R,ugm-3
12-01-2000,04:00,74,R,ugm-3
12-01-2000,05:00,76,R,ugm-3
12-01-2000,06:00,76,R,ugm-3
12-01-2000,07:00,76,R,ugm-3
12-01-2000,08:00,76,R,ugm-3
12-01-2000,09:00,76,R,ugm-3
12-01-2000,10:00,74,R,ugm-3
12-01-2000,11:00,74,R,ugm-3
12-01-2000,12:00,74,R,ugm-3
12-01-2000,13:00,74,R,ugm-3
12-01-2000,14:00,72,R,ugm-3
12-01-2000,15:00,70,R,ugm-3
12-01-2000,16:00,70,R,ugm-3
12-01-2000,17:00,70,R,ugm-3
12-01-2000,18:00,70,R,ugm-3
12-01-2000,19:00,68,R,ugm-3
12-01-2000,20:00,70,R,ugm-3
12-01-2000,21:00,70,R,ugm-3
12-01-2000,22:00,72,R,ugm-3
12-01-2000,23:00,70,R,ugm-3
12-01-2000,24:00,72,R,ugm-3
13-01-2000,01:00,72,R,ugm-3
13-01-2000,02:00,68,R,ugm-3
13-01-2000,03:00,72,R,ugm-3
13-01-2000,04:00,68,R,ugm-3
13-01-2000,05:00,68,R,ugm-3
13-01-2000,06:00,68,R,ugm-3
13-01-2000,07:00,70,R,ugm-3
13-01-2000,08:00,68,R,ugm-3
13-01-2000,09:00,64,R,ugm-3
13-01-2000,10:00,64,R,ugm-3
13-01-2000,11:00,64,R,ugm-3
13-01-2000,12:00,62,R,ugm-3
13-01-2000,13:00,60,R,ugm-3
13-01-2000,14:00,62,R,ugm-3
13-01-2000,15:00,68,R,ugm-3
13-01-2000,16:00,66,R,ugm-3
13-01-2000,17:00,62,R,ugm-3
13-01-2000,18:00,62,R,ugm-3
13-01-2000,19:00,66,R,ugm-3
13-01-2000,20:00,68,R,ugm-3
13-01-2000,21:00,60,R,ugm-3
13-01-2000,22:00,60,R,ugm-3
13-01-2000,23:00,42,R,ugm-3
13-01-2000,24:00,24,R,ugm-3
14-01-2000,01:00,26,R,ugm-3
14-01-2000,02:00,52,R,ugm-3
14-01-2000,03:00,56,R,ugm-3
14-01-2000,04:00,56,R,ugm-3
14-01-2000,05:00,60,R,ugm-3
14-01-2000,06:00,62,R,ugm-3
14-01-2000,07:00,62,R,ugm-3
14-01-2000,08:00,60,R,ugm-3
14-01-2000,09:00,60,R,ugm-3
14-01-2000,10:00,60,R,ugm-3
14-01-2000,11:00,56,R,ugm-3
14-01-2000,12:00,58,R,ugm-3
14-01-2000,13:00,,,
14-01-2000,14:00,52,R,ugm-3
14-01-2000,15:00,54,R,ugm-3
14-01-2000,16:00,54,R,ugm-3
14-01-2000,17:00,50,R,ugm-3
14-01-2000,18:00,50,R,ugm-3
14-01-2000,19:00,52,R,ugm-3
14-01-2000,20:00,48,R,ugm-3
14-01-2000,21:00,46,R,ugm-3
14-01-2000,22:00,50,R,ugm-3
14-01-2000,23:00,52,R,ugm-3
14-01-2000,24:00,52,R,ugm-3
15-01-2000,01:00,50,R,ugm-3
15-01-2000,02:00,48,R,ugm-3
15-01-2000,03:00,46,R,ugm-3
15-01-2000,04:00,42,R,ugm-3
15-01-2000,05:00,42,R,ugm-3
15-01-2000,06:00,42,R,ugm-3
15-01-2000,07:00,38,R,ugm-3
15-01-2000,08:00,36,R,ugm-3
15-01-2000,09:00,36,R,ugm-3
15-01-2000,10:00,34,R,ugm-3
15-01-2000,11:00,34,R,ugm-3
15-01-2000,12:00,30,R,ugm-3
15-01-2000,13:00,32,R,ugm-3
15-01-2000,14:00,34,R,ugm-3
15-01-2000,15:00,38,R,ugm-3
15-01-2000,16:00,40,R,ugm-3
15-01-2000,17:00,32,R,ugm-3
15-01-2000,18:00,26,R,ugm-3
15-01-2000,19:00,24,R,ugm-3
15-01-2000,20:00,26,R,ugm-3
15-01-2000,21:00,38,R,ugm-3
15-01-2000,22:00,28,R,ugm-3
15-01-2000,23:00,14,R,ugm-3
15-01-2000,24:00,16,R,ugm-3
16-01-2000,01:00,18,R,ugm-3
16-01-2000,02:00,22,R,ugm-3
16-01-2000,03:00,32,R,ugm-3
16-01-2000,04:00,46,R,ugm-3
16-01-2000,05:00,58,R,ugm-3
16-01-2000,06:00,60,R,ugm-3
16-01-2000,07:00,64,R,ugm-3
16-01-2000,08:00,66,R,ugm-3
16-01-2000,09:00,64,R,ugm-3
16-01-2000,10:00,68,R,ugm-3
16-01-2000,11:00,70,R,ugm-3
16-01-2000,12:00,72,R,ugm-3
16-01-2000,13:00,70,R,ugm-3
16-01-2000,14:00,68,R,ugm-3
16-01-2000,15:00,64,R,ugm-3
16-01-2000,16:00,62,R,ugm-3
16-01-2000,17:00,62,R,ugm-3
16-01-2000,18:00,64,R,ugm-3
16-01-2000,19:00,68,R,ugm-3
16-01-2000,20:00,68,R,ugm-3
16-01-2000,21:00,68,R,ugm-3
16-01-2000,22:00,66,R,ugm-3
16-01-2000,23:00,66,R,ugm-3
16-01-2000,24:00,64,R,ugm-3
17-01-2000,01:00,68,R,ugm-3
17-01-2000,02:00,64,R,ugm-3
17-01-2000,03:00,62,R,ugm-3
17-01-2000,04:00,60,R,ugm-3
17-01-2000,05:00,60,R,ugm-3
17-01-2000,06:00,56,R,ugm-3
17-01-2000,07:00,58,R,ugm-3
17-01-2000,08:00,54,R,ugm-3
17-01-2000,09:00,56,R,ugm-3
17-01-2000,10:00,56,R,ugm-3
17-01-2000,11:00,60,R,ugm-3
17-01-2000,12:00,56,R,ugm-3
17-01-2000,13:00,54,R,ugm-3
17-01-2000,14:00,50,R,ugm-3
17-01-2000,15:00,58,R,ugm-3
17-01-2000,16:00,56,R,ugm-3
17-01-2000,17:00,48,R,ugm-3
17-01-2000,18:00,52,R,ugm-3
17-01-2000,19:00,62,R,ugm-3
17-01-2000,20:00,68,R,ugm-3
17-01-2000,21:00,56,R,ugm-3
17-01-2000,22:00,62,R,ugm-3
17-01-2000,23:00,68,R,ugm-3
17-01-2000,24:00,68,R,ugm-3
18-01-2000,01:00,64,R,ugm-3
18-01-2000,02:00,64,R,ugm-3
18-01-2000,03:00,64,R,ugm-3
18-01-2000,04:00,64,R,ugm-3
18-01-2000,05:00,62,R,ugm-3
18-01-2000,06:00,62,R,ugm-3
18-01-2000,07:00,62,R,ugm-3
18-01-2000,08:00,60,R,ugm-3
18-01-2000,09:00,60,R,ugm-3
18-01-2000,10:00,60,R,ugm-3
18-01-2000,11:00,58,R,ugm-3
18-01-2000,12:00,58,R,ugm-3
18-01-2000,13:00,52,R,ugm-3
18-01-2000,14:00,52,R,ugm-3
18-01-2000,15:00,52,R,ugm-3
18-01-2000,16:00,52,R,ugm-3
18-01-2000,17:00,58,R,ugm-3
18-01-2000,18:00,56,R,ugm-3
18-01-2000,19:00,54,R,ugm-3
18-01-2000,20:00,56,R,ugm-3
18-01-2000,21:00,58,R,ugm-3
18-01-2000,22:00,54,R,ugm-3
18-01-2000,23:00,58,R,ugm-3
18-01-2000,24:00,56,R,ugm-3
19-01-2000,01:00,54,R,ugm-3
19-01-2000,02:00,56,R,ugm-3
19-01-2000,03:00,56,R,ugm-3
19-01-2000,04:00,56,R,ugm-3
19-01-2000,05:00,56,R,ugm-3
19-01-2000,06:00,52,R,ugm-3
19-01-2000,07:00,46,R,ugm-3
19-01-2000,08:00,50,R,ugm-3
19-01-2000,09:00,50,R,ugm-3
19-01-2000,10:00,48,R,ugm-3
19-01-2000,11:00,44,R,ugm-3
19-01-2000,12:00,38,R,ugm-3
19-01-2000,13:00,44,R,ugm-3
19-01-2000,14:00,54,R,ugm-3
19-01-2000,15:00,54,R,ugm-3
19-01-2000,16:00,52,R,ugm-3
19-01-2000,17:00,60,R,ugm-3
19-01-2000,18:00,58,R,ugm-3
19-01-2000,19:00,56,R,ugm-3
19-01-2000,20:00,50,R,ugm-3
19-01-2000,21:00,56,R,ugm-3
19-01-2000,22:00,58,R,ugm-3
19-01-2000,23:00,64,R,ugm-3
19-01-2000,24:00,64,R,ugm-3
20-01-2000,01:00,60,R,ugm-3
20-01-2000,02:00,54,R,ugm-3
20-01-2000,03:00,58,R,ugm-3
20-01-2000,04:00,60,R,ugm-3
20-01-2000,05:00,64,R,ugm-3
20-01-2000,06:00,64,R,ugm-3
20-01-2000,07:00,60,R,ugm-3
20-01-2000,08:00,54,R,ugm-3
20-01-2000,09:00,60,R,ugm-3
20-01-2000,10:00,64,R,ugm-3
20-01-2000,11:00,66,R,ugm-3
20-01-2000,12:00,64,R,ugm-3
20-01-2000,13:00,62,R,ugm-3
20-01-2000,14:00,64,R,ugm-3
20-01-2000,15:00,60,R,ugm-3
20-01-2000,16:00,58,R,ugm-3
20-01-2000,17:00,54,R,ugm-3
20-01-2000,18:00,56,R,ugm-3
20-01-2000,19:00,54,R,ugm-3
20-01-2000,20:00,56,R,ugm-3
20-01-2000,21:00,60,R,ugm-3
20-01-2000,22:00,60,R,ugm-3
20-01-2000,23:00,60,R,ugm-3
20-01-2000,24:00,58,R,ugm-3
21-01-2000,01:00,64,R,ugm-3
21-01-2000,02:00,66,R,ugm-3
21-01-2000,03:00,64,R,ugm-3
21-01-2000,04:00,64,R,ugm-3
21-01-2000,05:00,64,R,ugm-3
21-01-2000,06:00,66,R,ugm-3
21-01-2000,07:00,66,R,ugm-3
21-01-2000,08:00,66,R,ugm-3
21-01-2000,09:00,70,R,ugm-3
21-01-2000,10:00,68,R,ugm-3
21-01-2000,11:00,66,R,ugm-3
21-01-2000,12:00,60,R,ugm-3
21-01-2000,13:00,58,R,ugm-3
21-01-2000,14:00,60,R,ugm-3
21-01-2000,15:00,60,R,ugm-3
21-01-2000,16:00,52,R,ugm-3
21-01-2000,17:00,52,R,ugm-3
21-01-2000,18:00,52,R,ugm-3
21-01-2000,19:00,58,R,ugm-3
21-01-2000,20:00,64,R,ugm-3
21-01-2000,21:00,68,R,ugm-3
21-01-2000,22:00,66,R,ugm-3
21-01-2000,23:00,68,R,ugm-3
21-01-2000,24:00,68,R,ugm-3
22-01-2000,01:00,72,R,ugm-3
22-01-2000,02:00,72,R,ugm-3
22-01-2000,03:00,70,R,ugm-3
22-01-2000,04:00,72,R,ugm-3
22-01-2000,05:00,72,R,ugm-3
22-01-2000,06:00,70,R,ugm-3
22-01-2000,07:00,72,R,ugm-3
22-01-2000,08:00,72,R,ugm-3
22-01-2000,09:00,78,R,ugm-3
22-01-2000,10:00,76,R,ugm-3
22-01-2000,11:00,74,R,ugm-3
22-01-2000,12:00,74,R,ugm-3
22-01-2000,13:00,74,R,ugm-3
22-01-2000,14:00,74,R,ugm-3
22-01-2000,15:00,72,R,ugm-3
22-01-2000,16:00,72,R,ugm-3
22-01-2000,17:00,70,R,ugm-3
22-01-2000,18:00,66,R,ugm-3
22-01-2000,19:00,64,R,ugm-3
22-01-2000,20:00,66,R,ugm-3
22-01-2000,21:00,64,R,ugm-3
22-01-2000,22:00,62,R,ugm-3
22-01-2000,23:00,62,R,ugm-3
22-01-2000,24:00,60,R,ugm-3
23-01-2000,01:00,62,R,ugm-3
23-01-2000,02:00,64,R,ugm-3
23-01-2000,03:00,62,R,ugm-3
23-01-2000,04:00,60,R,ugm-3
23-01-2000,05:00,64,R,ugm-3
23-01-2000,06:00,66,R,ugm-3
23-01-2000,07:00,64,R,ugm-3
23-01-2000,08:00,62,R,ugm-3
23-01-2000,09:00,62,R,ugm-3
23-01-2000,10:00,62,R,ugm-3
23-01-2000,11:00,64,R,ugm-3
23-01-2000,12:00,64,R,ugm-3
23-01-2000,13:00,68,R,ugm-3
23-01-2000,14:00,66,R,ugm-3
23-01-2000,15:00,64,R,ugm-3
23-01-2000,16:00,58,R,ugm-3
23-01-2000,17:00,62,R,ugm-3
23-01-2000,18:00,62,R,ugm-3
23-01-2000,19:00,58,R,ugm-3
23-01-2000,20:00,62,R,ugm-3
23-01-2000,21:00,60,R,ugm-3
23-01-2000,22:00,60,R,ugm-3
23-01-2000,23:00,66,R,ugm-3
23-01-2000,24:00,68,R,ugm-3
24-01-2000,01:00,68,R,ugm-3
24-01-2000,02:00,60,R,ugm-3
24-01-2000,03:00,62,R,ugm-3
24-01-2000,04:00,58,R,ugm-3
24-01-2000,05:00,56,R,ugm-3
24-01-2000,06:00,58,R,ugm-3
24-01-2000,07:00,60,R,ugm-3
24-01-2000,08:00,60,R,ugm-3
24-01-2000,09:00,60,R,ugm-3
24-01-2000,10:00,54,R,ugm-3
24-01-2000,11:00,50,R,ugm-3
24-01-2000,12:00,58,R,ugm-3
24-01-2000,13:00,60,R,ugm-3
24-01-2000,14:00,56,R,ugm-3
24-01-2000,15:00,64,R,ugm-3
24-01-2000,16:00,58,R,ugm-3
24-01-2000,17:00,50,R,ugm-3
24-01-2000,18:00,56,R,ugm-3
24-01-2000,19:00,54,R,ugm-3
24-01-2000,20:00,54,R,ugm-3
24-01-2000,21:00,48,R,ugm-3
24-01-2000,22:00,32,R,ugm-3
24-01-2000,23:00,28,R,ugm-3
24-01-2000,24:00,24,R,ugm-3
25-01-2000,01:00,16,R,ugm-3
25-01-2000,02:00,32,R,ugm-3
25-01-2000,03:00,34,R,ugm-3
25-01-2000,04:00,40,R,ugm-3
25-01-2000,05:00,46,R,ugm-3
25-01-2000,06:00,46,R,ugm-3
25-01-2000,07:00,48,R,ugm-3
25-01-2000,08:00,48,R,ugm-3
25-01-2000,09:00,50,R,ugm-3
25-01-2000,10:00,46,R,ugm-3
25-01-2000,11:00,46,R,ugm-3
25-01-2000,12:00,50,R,ugm-3
25-01-2000,13:00,50,R,ugm-3
25-01-2000,14:00,50,R,ugm-3
25-01-2000,15:00,52,R,ugm-3
25-01-2000,16:00,52,R,ugm-3
25-01-2000,17:00,56,R,ugm-3
25-01-2000,18:00,56,R,ugm-3
25-01-2000,19:00,56,R,ugm-3
25-01-2000,20:00,54,R,ugm-3
25-01-2000,21:00,56,R,ugm-3
25-01-2000,22:00,58,R,ugm-3
25-01-2000,23:00,56,R,ugm-3
25-01-2000,24:00,58,R,ugm-3
26-01-2000,01:00,60,R,ugm-3
26-01-2000,02:00,60,R,ugm-3
26-01-2000,03:00,54,R,ugm-3
26-01-2000,04:00,60,R,ugm-3
26-01-2000,05:00,64,R,ugm-3
26-01-2000,06:00,64,R,ugm-3
26-01-2000,07:00,62,R,ugm-3
26-01-2000,08:00,54,R,ugm-3
26-01-2000,09:00,54,R,ugm-3
26-01-2000,10:00,52,R,ugm-3
26-01-2000,11:00,54,R,ugm-3
26-01-2000,12:00,56,R,ugm-3
26-01-2000,13:00,48,R,ugm-3
26-01-2000,14:00,42,R,ugm-3
26-01-2000,15:00,38,R,ugm-3
26-01-2000,16:00,34,R,ugm-3
26-01-2000,17:00,34,R,ugm-3
26-01-2000,18:00,38,R,ugm-3
26-01-2000,19:00,50,R,ugm-3
26-01-2000,20:00,48,R,ugm-3
26-01-2000,21:00,46,R,ugm-3
26-01-2000,22:00,48,R,ugm-3
26-01-2000,23:00,44,R,ugm-3
26-01-2000,24:00,44,R,ugm-3
27-01-2000,01:00,38,R,ugm-3
27-01-2000,02:00,42,R,ugm-3
27-01-2000,03:00,42,R,ugm-3
27-01-2000,04:00,46,R,ugm-3
27-01-2000,05:00,48,R,ugm-3
27-01-2000,06:00,50,R,ugm-3
27-01-2000,07:00,56,R,ugm-3
27-01-2000,08:00,50,R,ugm-3
27-01-2000,09:00,48,R,ugm-3
27-01-2000,10:00,50,R,ugm-3
27-01-2000,11:00,52,R,ugm-3
27-01-2000,12:00,56,R,ugm-3
27-01-2000,13:00,50,R,ugm-3
27-01-2000,14:00,62,R,ugm-3
27-01-2000,15:00,64,R,ugm-3
27-01-2000,16:00,66,R,ugm-3
27-01-2000,17:00,70,R,ugm-3
27-01-2000,18:00,70,R,ugm-3
27-01-2000,19:00,66,R,ugm-3
27-01-2000,20:00,58,R,ugm-3
27-01-2000,21:00,60,R,ugm-3
27-01-2000,22:00,62,R,ugm-3
27-01-2000,23:00,64,R,ugm-3
27-01-2000,24:00,66,R,ugm-3
28-01-2000,01:00,66,R,ugm-3
28-01-2000,02:00,66,R,ugm-3
28-01-2000,03:00,68,R,ugm-3
28-01-2000,04:00,68,R,ugm-3
28-01-2000,05:00,68,R,ugm-3
28-01-2000,06:00,68,R,ugm-3
28-01-2000,07:00,70,R,ugm-3
28-01-2000,08:00,74,R,ugm-3
28-01-2000,09:00,74,R,ugm-3
28-01-2000,10:00,74,R,ugm-3
28-01-2000,11:00,72,R,ugm-3
28-01-2000,12:00,74,R,ugm-3
28-01-2000,13:00,72,R,ugm-3
28-01-2000,14:00,72,R,ugm-3
28-01-2000,15:00,72,R,ugm-3
28-01-2000,16:00,70,R,ugm-3
28-01-2000,17:00,70,R,ugm-3
28-01-2000,18:00,70,R,ugm-3
28-01-2000,19:00,70,R,ugm-3
28-01-2000,20:00,72,R,ugm-3
28-01-2000,21:00,70,R,ugm-3
28-01-2000,22:00,70,R,ugm-3
28-01-2000,23:00,70,R,ugm-3
28-01-2000,24:00,70,R,ugm-3
29-01-2000,01:00,70,R,ugm-3
29-01-2000,02:00,68,R,ugm-3
29-01-2000,03:00,70,R,ugm-3
29-01-2000,04:00,68,R,ugm-3
29-01-2000,05:00,70,R,ugm-3
29-01-2000,06:00,72,R,ugm-3
29-01-2000,07:00,72,R,ugm-3
29-01-2000,08:00,72,R,ugm-3
29-01-2000,09:00,74,R,ugm-3
29-01-2000,10:00,76,R,ugm-3
29-01-2000,11:00,74,R,ugm-3
29-01-2000,12:00,76,R,ugm-3
29-01-2000,13:00,76,R,ugm-3
29-01-2000,14:00,76,R,ugm-3
29-01-2000,15:00,78,R,ugm-3
29-01-2000,16:00,76,R,ugm-3
29-01-2000,17:00,74,R,ugm-3
29-01-2000,18:00,78,R,ugm-3
29-01-2000,19:00,78,R,ugm-3
29-01-2000,20:00,78,R,ugm-3
29-01-2000,21:00,82,R,ugm-3
29-01-2000,22:00,80,R,ugm-3
29-01-2000,23:00,78,R,ugm-3
29-01-2000,24:00,80,R,ugm-3
30-01-2000,01:00,82,R,ugm-3
30-01-2000,02:00,78,R,ugm-3
30-01-2000,03:00,82,R,ugm-3
30-01-2000,04:00,76,R,ugm-3
30-01-2000,05:00,72,R,ugm-3
30-01-2000,06:00,72,R,ugm-3
30-01-2000,07:00,72,R,ugm-3
30-01-2000,08:00,74,R,ugm-3
30-01-2000,09:00,76,R,ugm-3
30-01-2000,10:00,76,R,ugm-3
30-01-2000,11:00,76,R,ugm-3
30-01-2000,12:00,76,R,ugm-3
30-01-2000,13:00,76,R,ugm-3
30-01-2000,14:00,76,R,ugm-3
30-01-2000,15:00,76,R,ugm-3
30-01-2000,16:00,76,R,ugm-3
30-01-2000,17:00,72,R,ugm-3
30-01-2000,18:00,74,R,ugm-3
30-01-2000,19:00,80,R,ugm-3
30-01-2000,20:00,82,R,ugm-3
30-01-2000,21:00,84,R,ugm-3
30-01-2000,22:00,84,R,ugm-3
30-01-2000,23:00,84,R,ugm-3
30-01-2000,24:00,78,R,ugm-3
31-01-2000,01:00,78,R,ugm-3
31-01-2000,02:00,80,R,ugm-3
31-01-2000,03:00,76,R,ugm-3
31-01-2000,04:00,80,R,ugm-3
31-01-2000,05:00,80,R,ugm-3
31-01-2000,06:00,78,R,ugm-3
31-01-2000,07:00,78,R,ugm-3
31-01-2000,08:00,78,R,ugm-3
31-01-2000,09:00,78,R,ugm-3
31-01-2000,10:00,76,R,ugm-3
31-01-2000,11:00,76,R,ugm-3
31-01-2000,12:00,74,R,ugm-3
31-01-2000,13:00,70,R,ugm-3
31-01-2000,14:00,70,R,ugm-3
31-01-2000,15:00,74,R,ugm-3
31-01-2000,16:00,76,R,ugm-3
31-01-2000,17:00,78,R,ugm-3
31-01-2000,18:00,78,R,ugm-3
31-01-2000,19:00,80,R,ugm-3
31-01-2000,20:00,78,R,ugm-3
31-01-2000,21:00,76,R,ugm-3
31-01-2000,22:00,74,R,ugm-3
31-01-2000,23:00,74,R,ugm-3
31-01-2000,24:00,72,R,ugm-3
01-02-2000,01:00,72,R,ugm-3
01-02-2000,02:00,72,R,ugm-3
01-02-2000,03:00,74,R,ugm-3
01-02-2000,04:00,78,R,ugm-3
01-02-2000,05:00,76,R,ugm-3
01-02-2000,06:00,76,R,ugm-3
01-02-2000,07:00,76,R,ugm-3
01-02-2000,08:00,76,R,ugm-3
01-02-2000,09:00,76,R,ugm-3
01-02-2000,10:00,78,R,ugm-3
01-02-2000,11:00,78,R,ugm-3
01-02-2000,12:00,82,R,ugm-3
01-02-2000,13:00,80,R,ugm-3
01-02-2000,14:00,78,R,ugm-3
01-02-2000,15:00,74,R,ugm-3
01-02-2000,16:00,70,R,ugm-3
01-02-2000,17:00,68,R,ugm-3
01-02-2000,18:00,66,R,ugm-3
01-02-2000,19:00,66,R,ugm-3
01-02-2000,20:00,70,R,ugm-3
01-02-2000,21:00,68,R,ugm-3
01-02-2000,22:00,68,R,ugm-3
01-02-2000,23:00,74,R,ugm-3
01-02-2000,24:00,72,R,ugm-3
02-02-2000,01:00,66,R,ugm-3
02-02-2000,02:00,62,R,ugm-3
02-02-2000,03:00,62,R,ugm-3
02-02-2000,04:00,62,R,ugm-3
02-02-2000,05:00,66,R,ugm-3
02-02-2000,06:00,68,R,ugm-3
02-02-2000,07:00,70,R,ugm-3
02-02-2000,08:00,72,R,ugm-3
02-02-2000,09:00,72,R,ugm-3
02-02-2000,10:00,72,R,ugm-3
02-02-2000,11:00,72,R,ugm-3
02-02-2000,12:00,72,R,ugm-3
02-02-2000,13:00,74,R,ugm-3
02-02-2000,14:00,74,R,ugm-3
02-02-2000,15:00,74,R,ugm-3
02-02-2000,16:00,74,R,ugm-3
02-02-2000,17:00,74,R,ugm-3
02-02-2000,18:00,74,R,ugm-3
02-02-2000,19:00,74,R,ugm-3
02-02-2000,20:00,74,R,ugm-3
02-02-2000,21:00,74,R,ugm-3
02-02-2000,22:00,74,R,ugm-3
02-02-2000,23:00,72,R,ugm-3
02-02-2000,24:00,72,R,ugm-3
03-02-2000,01:00,74,R,ugm-3
03-02-2000,02:00,74,R,ugm-3
03-02-2000,03:00,72,R,ugm-3
03-02-2000,04:00,72,R,ugm-3
03-02-2000,05:00,70,R,ugm-3
03-02-2000,06:00,76,R,ugm-3
03-02-2000,07:00,76,R,ugm-3
03-02-2000,08:00,78,R,ugm-3
03-02-2000,09:00,68,R,ugm-3
03-02-2000,10:00,70,R,ugm-3
03-02-2000,11:00,70,R,ugm-3
03-02-2000,12:00,70,R,ugm-3
03-02-2000,13:00,70,R,ugm-3
03-02-2000,14:00,70,R,ugm-3
03-02-2000,15:00,68,R,ugm-3
03-02-2000,16:00,70,R,ugm-3
03-02-2000,17:00,64,R,ugm-3
03-02-2000,18:00,68,R,ugm-3
03-02-2000,19:00,70,R,ugm-3
03-02-2000,20:00,70,R,ugm-3
03-02-2000,21:00,70,R,ugm-3
03-02-2000,22:00,74,R,ugm-3
03-02-2000,23:00,74,R,ugm-3
03-02-2000,24:00,74,R,ugm-3
04-02-2000,01:00,74,R,ugm-3
04-02-2000,02:00,74,R,ugm-3
04-02-2000,03:00,76,R,ugm-3
04-02-2000,04:00,76,R,ugm-3
04-02-2000,05:00,76,R,ugm-3
04-02-2000,06:00,76,R,ugm-3
04-02-2000,07:00,74,R,ugm-3
04-02-2000,08:00,76,R,ugm-3
04-02-2000,09:00,74,R,ugm-3
04-02-2000,10:00,74,R,ugm-3
04-02-2000,11:00,72,R,ugm-3
04-02-2000,12:00,72,R,ugm-3
04-02-2000,13:00,70,R,ugm-3
04-02-2000,14:00,72,R,ugm-3
04-02-2000,15:00,72,R,ugm-3
04-02-2000,16:00,72,R,ugm-3
04-02-2000,17:00,70,R,ugm-3
04-02-2000,18:00,70,R,ugm-3
04-02-2000,19:00,72,R,ugm-3
04-02-2000,20:00,72,R,ugm-3
04-02-2000,21:00,70,R,ugm-3
04-02-2000,22:00,66,R,ugm-3
04-02-2000,23:00,68,R,ugm-3
04-02-2000,24:00,68,R,ugm-3
05-02-2000,01:00,68,R,ugm-3
05-02-2000,02:00,64,R,ugm-3
05-02-2000,03:00,68,R,ugm-3
05-02-2000,04:00,70,R,ugm-3
05-02-2000,05:00,66,R,ugm-3
05-02-2000,06:00,66,R,ugm-3
05-02-2000,07:00,66,R,ugm-3
05-02-2000,08:00,64,R,ugm-3
05-02-2000,09:00,60,R,ugm-3
05-02-2000,10:00,54,R,ugm-3
05-02-2000,11:00,60,R,ugm-3
05-02-2000,12:00,70,R,ugm-3